Bloomington, IL

2:47 AM CST on February 21, 2017 (GMT -0600)
Central Ill Regional

Weather History for KBMI - February, 2013

Change the Weather History Date:

Friday, February 1, 2013

  Actual Average Record
Temperature  
Mean Temperature 10 °F -  
Max Temperature 20 °F 9 °F 48 °F (2006)
Min Temperature 1 °F -15 °F -15 °F (1979)
Degree Days  
Heating Degree Days 54    
Moisture  
Dew Point 3 °F    
Average Humidity 72    
Maximum Humidity 89    
Minimum Humidity 56    
Precipitation  
Precipitation 0.00 in - - ()
Sea Level Pressure  
Sea Level Pressure 30.34 in    
Wind  
Wind Speed 17 mph (WSW)    
Max Wind Speed 25 mph    
Max Gust Speed 28 mph    
Visibility 8 miles    
Events Snow    
Averages and records for this station are not official NWS values.
T = Trace of Precipitation, MM = Missing Value Source: NWS Daily Summary

Daily Weather History Graph

Daily Weather History Graph

Search for Another Location

Airport or City:

Trip Planner

Search our weather history database for the weather conditions in past years. The results will help you decide how hot, cold, wet, or windy it might be!

Date:

Astronomy

Feb. 01, 2013 Rise Set
Actual Time 7:04 AM CST 5:14 PM CST
Civil Twilight 6:36 AM CST 5:43 PM CST
Nautical Twilight 6:03 AM CST 6:15 PM CST
Astronomical Twilight 5:31 AM CST 6:47 PM CST
Moon 11:22 PM CST (2/1) 9:36 AM CST (2/1)
Length of Visible Light 11h 06m
Length of Day
10h 09m
Waning Gibbous, 70% of the Moon is Illuminated
Feb 1
Waning Gibbous
Feb 3
Last Quarter
Feb 10
New
Feb 17
First Quarter
Feb 25
Full

Hourly Weather History & Observations

Time (CST) Temp. Windchill Dew Point Humidity Pressure Visibility Wind Dir Wind Speed Gust Speed Precip Events Conditions
12:10 AM 3.2 °F -17.6 °F -0.4 °F 85% 30.25 in 2.5 mi WNW 19.6 mph - 0.00 in Snow Light Snow
12:26 AM 3.2 °F -17.6 °F -2.2 °F 78% 30.26 in 6.0 mi WNW 19.6 mph - 0.00 in Snow Light Snow
12:34 AM 3.2 °F -15.9 °F -0.4 °F 85% 30.26 in 5.0 mi WNW 16.1 mph - 0.00 in Snow Light Snow
12:47 AM 3.2 °F -19.9 °F -4.0 °F 72% 30.27 in 10.0 mi WNW 25.3 mph - 0.00 in Snow Light Snow
12:56 AM 4.1 °F -15.9 °F -2.9 °F 73% 30.37 in 10.0 mi WNW 18.4 mph - 0.00 in   Partly Cloudy
1:56 AM 4.1 °F -14.1 °F -2.9 °F 73% 30.39 in 10.0 mi West 15.0 mph 25.3 mph 0.00 in   Clear
2:31 AM 3.2 °F -18.1 °F -2.2 °F 78% 30.31 in 8.0 mi WNW 20.7 mph 27.6 mph 0.00 in Snow Light Snow
2:39 AM 3.2 °F -18.1 °F -4.0 °F 72% 30.31 in 10.0 mi WNW 20.7 mph - 0.00 in   Scattered Clouds
2:56 AM 3.0 °F -17.8 °F -2.9 °F 76% 30.41 in 9.0 mi WNW 19.6 mph 25.3 mph 0.00 in   Partly Cloudy
3:19 AM 3.2 °F -17.1 °F -2.2 °F 78% 30.31 in 8.0 mi WNW 18.4 mph - N/A   Mostly Cloudy
3:30 AM 3.2 °F -17.1 °F -4.0 °F 72% 30.31 in 10.0 mi NW 18.4 mph - N/A   Mostly Cloudy
3:43 AM 3.2 °F -17.6 °F -4.0 °F 72% 30.31 in 10.0 mi WNW 19.6 mph - N/A   Scattered Clouds
4:56 AM 2.1 °F -17.9 °F -4.9 °F 72% 30.43 in 10.0 mi WNW 17.3 mph - N/A   Clear
5:56 AM 2.1 °F -16.0 °F -4.0 °F 76% 30.45 in 10.0 mi WNW 13.8 mph - N/A   Clear
6:56 AM 2.1 °F -14.4 °F -4.0 °F 76% 30.47 in 10.0 mi West 11.5 mph - N/A   Scattered Clouds
7:13 AM 1.4 °F -14.5 °F -2.2 °F 85% 30.36 in 8.0 mi West 10.4 mph - N/A   Mostly Cloudy
7:48 AM 3.2 °F -13.9 °F -4.0 °F 72% 30.38 in 8.0 mi West 12.7 mph - N/A   Scattered Clouds
7:56 AM 3.0 °F -14.1 °F -4.0 °F 73% 30.49 in 7.0 mi West 12.7 mph - 0.00 in Snow Light Snow
8:56 AM 4.1 °F -14.1 °F -4.0 °F 69% 30.51 in 10.0 mi West 15.0 mph - N/A   Mostly Cloudy
10:56 AM 9.1 °F -7.7 °F -0.9 °F 64% 30.51 in 10.0 mi WSW 15.0 mph - N/A   Clear
11:56 AM 11.1 °F -5.7 °F 1.0 °F 64% 30.49 in 10.0 mi WSW 16.1 mph 20.7 mph N/A   Scattered Clouds
12:56 PM 13.1 °F -2.6 °F 2.1 °F 62% 30.45 in 10.0 mi WSW 15.0 mph - N/A   Clear
1:56 PM 15.1 °F 1.8 °F 2.1 °F 57% 30.43 in 10.0 mi WSW 11.5 mph 20.7 mph N/A   Clear
2:56 PM 16.2 °F 1.3 °F 3.0 °F 56% 30.42 in 10.0 mi WSW 15.0 mph - N/A   Clear
3:56 PM 17.1 °F 3.6 °F 4.1 °F 57% 30.40 in 10.0 mi WSW 12.7 mph - N/A   Clear
4:56 PM 17.1 °F 2.0 °F 5.0 °F 59% 30.40 in 10.0 mi WSW 16.1 mph - N/A   Overcast
5:56 PM 17.1 °F 3.0 °F 6.1 °F 62% 30.38 in 10.0 mi WSW 13.8 mph - N/A   Overcast
6:56 PM 17.1 °F 2.0 °F 6.1 °F 62% 30.38 in 10.0 mi SW 16.1 mph - N/A   Overcast
7:56 PM 18.1 °F 5.0 °F 7.2 °F 62% 30.34 in 10.0 mi SW 12.7 mph - N/A   Mostly Cloudy
8:56 PM 19.0 °F 6.1 °F 9.1 °F 65% 30.31 in 10.0 mi SSW 12.7 mph - N/A   Partly Cloudy
9:56 PM 20.1 °F 5.9 °F 10.0 °F 65% 30.28 in 10.0 mi SSW 16.1 mph - N/A   Partly Cloudy
10:27 PM 19.4 °F 4.1 °F 10.4 °F 68% 30.19 in 10.0 mi SSW 18.4 mph - N/A   Overcast
10:41 PM 19.4 °F 4.5 °F 10.4 °F 68% 30.18 in 5.0 mi SSW 17.3 mph - N/A   Haze
10:56 PM 19.0 °F 3.6 °F 12.0 °F 74% 30.27 in 3.0 mi SSW 18.4 mph 24.2 mph N/A   Haze
11:06 PM 19.4 °F 3.2 °F 12.2 °F 74% 30.17 in 2.5 mi SSW 20.7 mph - N/A   Haze
11:13 PM 19.4 °F 4.5 °F 14.0 °F 80% 30.17 in 2.0 mi SSW 17.3 mph - 0.00 in Snow Light Snow
11:23 PM 19.4 °F 5.0 °F 15.8 °F 86% 30.17 in 1.5 mi SSW 16.1 mph - 0.00 in Snow Light Snow
11:49 PM 19.4 °F 4.5 °F 15.8 °F 86% 30.16 in 1.2 mi SSW 17.3 mph - 0.00 in Snow Light Snow
11:56 PM 19.0 °F 5.0 °F 16.2 °F 89% 30.25 in 1.8 mi SSW 15.0 mph - 0.00 in Snow Light Snow